Location: Bartshausen
(51.8454°N, 9.8167°E)
Time: 06:56:57
(UTC+00:00)

Cosmos 1703 Rocket - Pass Details

Date: 08 November 2025
Orbit: 599 x 625 km, 82.5° (Epoch: 11 December)

Event Time Altitude Azimuth Distance (km) Brightness Sun altitude
Rises 05:12:23 0° 215° (SW) 2,861 6.7 -11.8°
Reaches altitude 10° 05:14:45 10° 225° (SW) 1,966 5.8 -11.5°
Maximum altitude 05:18:42 33° 290° (WNW) 1,040 4.2 -10.9°
Drops below altitude 10° 05:22:43 10° 355° (N) 1,995 6.0 -10.3°
Sets 05:25:09 0° 5° (N) 2,910 6.9 -9.9°
